Weather History for Westfield, MA

Change the Weather History Date:

Friday, February 22, 2013

  Actual Average Record
Temperature  
Mean Temperature 26 °F -  
Max Temperature 39 °F 35 °F 68 °F (1997)
Min Temperature 14 °F 18 °F 7 °F (2001)
Degree Days  
Heating Degree Days 38    
Moisture  
Dew Point 18 °F    
Average Humidity 64    
Maximum Humidity 84    
Minimum Humidity 43    
Precipitation  
Precipitation 0.00 in - - ()
Sea Level Pressure  
Sea Level Pressure 30.34 in    
Wind  
Wind Speed 5 mph (SSW)    
Max Wind Speed 14 mph    
Max Gust Speed -    
Visibility 10 miles    
Events      
Averages and records for this station are not official NWS values.
T = Trace of Precipitation, MM = Missing Value Source: NWS Daily Summary

Daily Weather History Graph

Daily Weather History Graph

Search for Another Location

Airport:

Trip Planner

Search our weather history database for the weather conditions in past years. The results will help you decide how hot, cold, wet, or windy it might be!

Date:

Astronomy

Feb. 22, 2013 Rise Set
Actual Time 6:36 AM EST 5:32 PM EST
Civil Twilight 6:08 AM EST 6:00 PM EST
Nautical Twilight 5:35 AM EST 6:33 PM EST
Astronomical Twilight 5:03 AM EST 7:05 PM EST
Moon 2:39 PM EST (2/22) 4:22 AM EST (2/22)
Length of Visible Light 11h 52m
Length of Day
10h 56m
Waxing Gibbous, 90% of the Moon is Illuminated
Feb 22
Waxing Gibbous
Feb 25
Full
Mar 4
Last Quarter
Mar 11
New
Mar 19
First Quarter

Hourly Weather History & Observations

Time (EST) Temp. Windchill Dew Point Humidity Pressure Visibility Wind Dir Wind Speed Gust Speed Precip Events Conditions
12:53 AM 23.0 °F 10.6 °F 12.9 °F 65% 30.31 in 10.0 mi NNW 13.8 mph - N/A   Clear
1:53 AM 23.0 °F 13.9 °F 12.9 °F 65% 30.30 in 10.0 mi NNW 8.1 mph - N/A   Clear
2:53 AM 21.9 °F 15.7 °F 14.0 °F 72% 30.30 in 10.0 mi NNE 4.6 mph - N/A   Clear
3:53 AM 16.0 °F 10.4 °F 10.9 °F 81% 30.31 in 10.0 mi SSW 3.5 mph - N/A   Clear
4:53 AM 17.1 °F - 12.0 °F 81% 30.35 in 10.0 mi Calm Calm - N/A   Clear
5:53 AM 15.1 °F - 10.9 °F 84% 30.38 in 10.0 mi Calm Calm - N/A   Clear
6:53 AM 14.0 °F - 10.0 °F 84% 30.39 in 10.0 mi Calm Calm - N/A   Clear
7:53 AM 19.0 °F - 14.0 °F 81% 30.40 in 10.0 mi Calm Calm - N/A   Clear
8:53 AM 26.1 °F - 18.0 °F 71% 30.42 in 10.0 mi Calm Calm - N/A   Clear
9:53 AM 32.0 °F 24.2 °F 19.0 °F 59% 30.40 in 10.0 mi NNE 9.2 mph - N/A   Clear
10:53 AM 35.1 °F 28.6 °F 19.9 °F 54% 30.38 in 10.0 mi North 8.1 mph - N/A   Clear
11:53 AM 36.0 °F 32.1 °F 19.0 °F 50% 30.38 in 10.0 mi Variable 4.6 mph - N/A   Clear
12:53 PM 37.0 °F 34.5 °F 18.0 °F 46% 30.37 in 10.0 mi West 3.5 mph - N/A   Clear
1:53 PM 39.0 °F - 18.0 °F 43% 30.34 in 10.0 mi Calm Calm - N/A   Clear
2:53 PM 39.0 °F - 19.0 °F 45% 30.33 in 10.0 mi Calm Calm - N/A   Clear
3:53 PM 39.0 °F - 18.0 °F 43% 30.32 in 10.0 mi Calm Calm - N/A   Clear
4:53 PM 36.0 °F 33.3 °F 23.0 °F 59% 30.32 in 10.0 mi SSW 3.5 mph - N/A   Clear
5:53 PM 36.0 °F 32.1 °F 21.9 °F 57% 30.33 in 10.0 mi SSW 4.6 mph - N/A   Clear
6:53 PM 34.0 °F - 24.1 °F 67% 30.33 in 10.0 mi Calm Calm - N/A   Partly Cloudy
7:53 PM 35.1 °F 32.2 °F 21.0 °F 57% 30.33 in 10.0 mi South 3.5 mph - N/A   Mostly Cloudy
8:53 PM 34.0 °F 27.2 °F 23.0 °F 64% 30.34 in 10.0 mi South 8.1 mph - N/A   Overcast
9:53 PM 34.0 °F 28.8 °F 24.1 °F 67% 30.33 in 10.0 mi South 5.8 mph - N/A   Overcast
10:53 PM 34.0 °F 29.8 °F 25.0 °F 70% 30.32 in 10.0 mi South 4.6 mph - N/A   Overcast
11:16 PM 33.8 °F 29.6 °F 24.8 °F 70% 30.30 in 10.0 mi South 4.6 mph - N/A   Overcast
11:53 PM 33.1 °F 30.0 °F 25.0 °F 72% 30.32 in 10.0 mi South 3.5 mph - N/A   Overcast